QPF
0.01 0.01 0.00 0.00 0.00 0.01 0.01 0.02 0.02 0.03 0.03 0.02 0.02 0.02 0.01 0.02 0.02 0.02 0.03 0.02 0.02 0.03 0.04 0.04 0.03 0.02 0.02 0.02 0.02 0.02 0.01 0.02 0.03 0.02 0.01 0.01 0.00 0.00 0.00 0.00 0.00 0.00 0.01
0.01 0.01 0.01 0.01 0.01 0.01 0.01 0.02 0.02 0.02 0.02 0.02 0.02 0.02 0.02 0.02 0.01 0.02 0.02 0.01 0.01 0.02 0.03 0.04 0.04 0.04 0.04 0.03 0.02 0.02 0.01 0.02 0.02 0.02 0.01 0.01 0.00 0.00 0.00 0.00 0.00 0.00 0.00
0.00 0.00 0.01 0.01 0.01 0.01 0.01 0.01 0.01 0.02 0.02 0.03 0.02 0.02 0.02 0.01 0.01 0.01 0.01 0.01 0.01 0.02 0.02 0.03 0.04 0.05 0.05 0.04 0.03 0.02 0.02 0.02 0.02 0.02 0.01 0.00 0.00 0.00 0.00 0.00 0.00 0.00 0.00
0.00 0.00 0.00 0.01 0.01 0.02 0.02 0.01 0.02 0.02 0.03 0.03 0.03 0.02 0.02 0.01 0.01 0.01 0.01 0.01 0.01 0.01 0.02 0.02 0.03 0.03 0.04 0.05 0.05 0.04 0.03 0.02 0.02 0.02 0.01 0.01 0.00 0.00 0.00 0.00 0.00 0.00 0.00
0.00 0.00 0.00 0.01 0.01 0.02 0.02 0.02 0.03 0.02 0.02 0.03 0.03 0.03 0.02 0.02 0.02 0.01 0.01 0.01 0.01 0.01 0.02 0.02 0.02 0.04 0.04 0.04 0.04 0.04 0.04 0.03 0.02 0.02 0.02 0.02 0.01 0.01 0.00 0.00 0.00 0.00 0.00
0.00 0.00 0.00 0.00 0.01 0.02 0.02 0.02 0.01 0.01 0.01 0.02 0.03 0.02 0.02 0.01 0.02 0.02 0.01 0.01 0.01 0.01 0.01 0.01 0.02 0.03 0.04 0.05 0.04 0.04 0.05 0.04 0.04 0.03 0.03 0.02 0.02 0.01 0.01 0.00 0.00 0.00 0.00
0.00 0.01 0.01 0.01 0.01 0.03 0.03 0.02 0.01 0.02 0.01 0.02 0.03 0.03 0.02 0.02 0.01 0.01 0.01 0.01 0.01 0.01 0.01 0.01 0.02 0.02 0.03 0.04 0.04 0.05 0.05 0.04 0.04 0.03 0.03 0.03 0.02 0.01 0.01 0.01 0.00 0.00 0.00
0.01 0.01 0.01 0.01 0.01 0.01 0.02 0.02 0.02 0.02 0.02 0.02 0.03 0.03 0.04 0.03 0.02 0.01 0.01 0.01 0.01 0.01 0.01 0.01 0.01 0.02 0.03 0.04 0.04 0.03 0.03 0.03 0.03 0.03 0.03 0.03 0.02 0.02 0.01 0.01 0.00 0.00 0.00
0.01 0.01 0.01 0.01 0.01 0.00 0.00 0.01 0.01 0.01 0.01 0.01 0.02 0.02 0.03 0.04 0.04 0.02 0.02 0.01 0.01 0.01 0.00 0.00 0.01 0.02 0.03 0.04 0.04 0.04 0.03 0.02 0.03 0.04 0.03 0.02 0.02 0.02 0.02 0.02 0.01 0.01 0.00
0.01 0.01 0.01 0.01 0.01 0.01 0.00 0.00 0.00 0.00 0.01 0.01 0.01 0.01 0.02 0.02 0.03 0.04 0.03 0.02 0.01 0.01 0.01 0.01 0.01 0.01 0.03 0.05 0.05 0.05 0.03 0.02 0.03 0.03 0.03 0.03 0.02 0.02 0.02 0.01 0.01 0.01 0.01
0.01 0.01 0.02 0.01 0.01 0.01 0.01 0.01 0.01 0.01 0.01 0.01 0.01 0.00 0.01 0.01 0.03 0.03 0.03 0.02 0.03 0.03 0.02 0.01 0.01 0.01 0.02 0.04 0.05 0.04 0.04 0.03 0.03 0.04 0.04 0.03 0.02 0.02 0.01 0.01 0.01 0.01 0.01
0.01 0.01 0.01 0.01 0.02 0.01 0.01 0.01 0.01 0.01 0.01 0.01 0.01 0.00 0.00 0.01 0.01 0.02 0.02 0.02 0.02 0.02 0.02 0.02 0.02 0.02 0.02 0.02 0.04 0.04 0.05 0.05 0.04 0.04 0.04 0.04 0.03 0.02 0.01 0.01 0.01 0.01 0.01
0.01 0.01 0.02 0.02 0.02 0.02 0.02 0.02 0.02 0.01 0.01 0.01 0.01 0.01 0.01 0.00 0.01 0.02 0.02 0.01 0.01 0.01 0.01 0.02 0.03 0.03 0.03 0.03 0.03 0.04 0.04 0.04 0.05 0.04 0.04 0.04 0.03 0.03 0.02 0.02 0.02 0.02 0.02
0.01 0.01 0.01 0.01 0.01 0.02 0.02 0.02 0.02 0.02 0.01 0.01 0.01 0.01 0.01 0.00 0.00 0.00 0.01 0.01 0.01 0.01 0.02 0.02 0.03 0.03 0.03 0.03 0.04 0.04 0.04 0.04 0.04 0.04 0.04 0.04 0.03 0.03 0.03 0.02 0.02 0.02 0.01
0.00 0.00 0.00 0.01 0.01 0.01 0.02 0.02 0.02 0.02 0.02 0.01 0.01 0.02 0.01 0.01 0.00 0.01 0.01 0.01 0.01 0.02 0.02 0.02 0.02 0.02 0.02 0.03 0.04 0.04 0.04 0.04 0.05 0.04 0.04 0.04 0.04 0.03 0.03 0.02 0.02 0.02 0.02
0.00 0.00 0.00 0.00 0.01 0.01 0.01 0.01 0.01 0.02 0.01 0.01 0.01 0.01 0.01 0.01 0.01 0.01 0.01 0.01 0.01 0.02 0.02 0.01 0.01 0.01 0.01 0.02 0.04 0.05 0.05 0.05 0.05 0.05 0.05 0.05 0.04 0.03 0.03 0.02 0.02 0.02 0.02
0.01 0.01 0.00 0.01 0.01 0.01 0.01 0.01 0.01 0.02 0.02 0.02 0.02 0.01 0.01 0.01 0.01 0.01 0.01 0.02 0.02 0.02 0.01 0.01 0.01 0.01 0.01 0.02 0.03 0.04 0.05 0.06 0.06 0.07 0.07 0.07 0.05 0.04 0.03 0.03 0.02 0.02 0.02
0.01 0.01 0.01 0.01 0.01 0.01 0.01 0.01 0.01 0.02 0.03 0.02 0.02 0.02 0.02 0.02 0.02 0.01 0.01 0.02 0.02 0.02 0.02 0.02 0.01 0.01 0.01 0.02 0.02 0.03 0.05 0.06 0.06 0.06 0.07 0.07 0.06 0.05 0.04 0.04 0.03 0.02 0.02
0.01 0.01 0.01 0.02 0.01 0.01 0.01 0.01 0.01 0.01 0.01 0.02 0.02 0.02 0.03 0.03 0.02 0.01 0.01 0.01 0.01 0.01 0.01 0.02 0.02 0.02 0.02 0.02 0.03 0.04 0.05 0.06 0.06 0.05 0.06 0.06 0.06 0.05 0.04 0.03 0.03 0.02 0.02
0.01 0.02 0.02 0.02 0.02 0.01 0.01 0.01 0.01 0.01 0.01 0.02 0.02 0.03 0.03 0.02 0.02 0.01 0.01 0.01 0.01 0.01 0.01 0.01 0.02 0.02 0.03 0.03 0.03 0.04 0.05 0.06 0.07 0.06 0.05 0.06 0.06 0.06 0.05 0.04 0.04 0.03 0.02
0.01 0.01 0.02 0.02 0.03 0.03 0.03 0.02 0.01 0.01 0.01 0.01 0.02 0.03 0.03 0.03 0.02 0.02 0.01 0.01 0.01 0.01 0.01 0.01 0.02 0.02 0.02 0.03 0.04 0.05 0.05 0.06 0.07 0.07 0.07 0.06 0.06 0.05 0.05 0.04 0.04 0.04 0.04
0.01 0.01 0.02 0.02 0.02 0.03 0.05 0.05 0.04 0.02 0.02 0.02 0.02 0.02 0.03 0.03 0.03 0.03 0.02 0.02 0.01 0.01 0.01 0.01 0.01 0.01 0.02 0.02 0.03 0.04 0.05 0.06 0.07 0.08 0.08 0.07 0.06 0.05 0.04 0.04 0.04 0.04 0.04
0.01 0.02 0.02 0.02 0.02 0.03 0.04 0.05 0.06 0.05 0.04 0.03 0.03 0.03 0.03 0.03 0.03 0.03 0.03 0.03 0.03 0.02 0.01 0.01 0.01 0.02 0.02 0.02 0.03 0.04 0.05 0.05 0.07 0.08 0.08 0.07 0.06 0.05 0.05 0.05 0.04 0.04 0.04
0.01 0.01 0.02 0.02 0.02 0.03 0.03 0.04 0.05 0.05 0.05 0.05 0.04 0.04 0.03 0.03 0.03 0.03 0.03 0.03 0.03 0.02 0.02 0.02 0.02 0.02 0.02 0.02 0.02 0.03 0.04 0.05 0.06 0.07 0.08 0.08 0.07 0.05 0.05 0.05 0.05 0.05 0.04
0.01 0.01 0.01 0.02 0.02 0.03 0.03 0.04 0.05 0.04 0.04 0.05 0.05 0.04 0.04 0.04 0.04 0.04 0.04 0.04 0.04 0.03 0.02 0.02 0.02 0.02 0.02 0.02 0.02 0.02 0.03 0.04 0.05 0.05 0.06 0.08 0.08 0.07 0.06 0.05 0.05 0.05 0.05
0.01 0.01 0.02 0.02 0.03 0.04 0.04 0.04 0.04 0.05 0.04 0.04 0.04 0.04 0.04 0.05 0.04 0.04 0.04 0.05 0.04 0.03 0.03 0.03 0.02 0.02 0.02 0.02 0.02 0.02 0.03 0.03 0.05 0.06 0.06 0.07 0.08 0.07 0.06 0.05 0.04 0.04 0.04
MSLP
1012.81 1013.18 1013.56 1013.90 1014.18 1014.37 1014.50 1014.60 1014.71 1014.87 1015.08 1015.37 1015.70 1016.06 1016.40 1016.69 1016.90 1017.03 1017.08 1017.10 1017.12 1017.17 1017.29 1017.50 1017.80 1018.18 1018.64 1019.15 1019.69 1020.25 1020.84 1021.43 1022.04 1022.66 1023.29 1023.91 1024.49 1025.03 1025.50 1025.88 1026.17 1026.37 1026.50
1012.82 1013.19 1013.55 1013.87 1014.13 1014.32 1014.46 1014.57 1014.69 1014.84 1015.06 1015.34 1015.67 1016.02 1016.36 1016.66 1016.88 1017.04 1017.14 1017.19 1017.24 1017.32 1017.46 1017.66 1017.95 1018.32 1018.74 1019.22 1019.73 1020.27 1020.83 1021.42 1022.02 1022.65 1023.28 1023.90 1024.50 1025.05 1025.54 1025.95 1026.27 1026.52 1026.69
1012.89 1013.26 1013.62 1013.93 1014.18 1014.36 1014.50 1014.62 1014.75 1014.91 1015.14 1015.42 1015.75 1016.10 1016.44 1016.73 1016.97 1017.15 1017.27 1017.36 1017.45 1017.55 1017.71 1017.93 1018.21 1018.56 1018.96 1019.41 1019.89 1020.40 1020.94 1021.49 1022.08 1022.67 1023.29 1023.89 1024.47 1025.01 1025.49 1025.89 1026.22 1026.48 1026.68
1012.98 1013.37 1013.74 1014.05 1014.30 1014.49 1014.63 1014.76 1014.91 1015.09 1015.33 1015.63 1015.96 1016.30 1016.64 1016.93 1017.18 1017.36 1017.51 1017.62 1017.74 1017.88 1018.06 1018.29 1018.58 1018.93 1019.32 1019.75 1020.20 1020.68 1021.17 1021.69 1022.23 1022.79 1023.36 1023.92 1024.46 1024.95 1025.39 1025.77 1026.08 1026.33 1026.54
1013.05 1013.50 1013.89 1014.21 1014.46 1014.66 1014.82 1014.97 1015.15 1015.36 1015.62 1015.93 1016.26 1016.61 1016.94 1017.23 1017.47 1017.66 1017.82 1017.96 1018.10 1018.27 1018.49 1018.75 1019.06 1019.42 1019.81 1020.22 1020.65 1021.09 1021.55 1022.02 1022.51 1023.00 1023.51 1024.01 1024.49 1024.93 1025.32 1025.65 1025.92 1026.14 1026.32
1013.08 1013.58 1014.00 1014.35 1014.62 1014.83 1015.02 1015.20 1015.41 1015.66 1015.95 1016.28 1016.63 1016.97 1017.29 1017.57 1017.81 1018.00 1018.17 1018.33 1018.51 1018.72 1018.97 1019.28 1019.62 1020.00 1020.40 1020.81 1021.21 1021.62 1022.03 1022.45 1022.88 1023.31 1023.75 1024.18 1024.60 1024.98 1025.31 1025.59 1025.81 1025.99 1026.13
1013.02 1013.57 1014.03 1014.40 1014.70 1014.94 1015.16 1015.39 1015.65 1015.94 1016.27 1016.62 1016.98 1017.33 1017.64 1017.91 1018.14 1018.33 1018.51 1018.70 1018.92 1019.17 1019.48 1019.84 1020.22 1020.63 1021.05 1021.45 1021.84 1022.22 1022.58 1022.94 1023.31 1023.68 1024.05 1024.42 1024.78 1025.11 1025.39 1025.62 1025.80 1025.93 1026.03
1012.85 1013.45 1013.94 1014.34 1014.67 1014.95 1015.21 1015.49 1015.80 1016.14 1016.52 1016.90 1017.28 1017.63 1017.94 1018.20 1018.42 1018.62 1018.82 1019.03 1019.29 1019.61 1019.97 1020.38 1020.82 1021.27 1021.70 1022.10 1022.48 1022.82 1023.14 1023.44 1023.75 1024.06 1024.39 1024.71 1025.02 1025.31 1025.56 1025.76 1025.91 1026.00 1026.06
1012.58 1013.20 1013.72 1014.15 1014.50 1014.82 1015.14 1015.48 1015.85 1016.24 1016.67 1017.08 1017.48 1017.84 1018.15 1018.41 1018.63 1018.84 1019.06 1019.31 1019.62 1019.99 1020.42 1020.88 1021.37 1021.85 1022.30 1022.71 1023.06 1023.37 1023.64 1023.90 1024.16 1024.43 1024.71 1025.01 1025.30 1025.57 1025.81 1026.00 1026.13 1026.21 1026.23
1012.21 1012.85 1013.39 1013.83 1014.22 1014.59 1014.96 1015.35 1015.78 1016.24 1016.71 1017.17 1017.59 1017.97 1018.28 1018.55 1018.78 1019.00 1019.25 1019.54 1019.90 1020.32 1020.80 1021.32 1021.85 1022.36 1022.82 1023.22 1023.55 1023.83 1024.07 1024.28 1024.50 1024.73 1024.99 1025.28 1025.57 1025.85 1026.10 1026.29 1026.43 1026.50 1026.50
1011.77 1012.42 1012.97 1013.44 1013.86 1014.27 1014.69 1015.15 1015.64 1016.16 1016.67 1017.18 1017.63 1018.03 1018.36 1018.64 1018.89 1019.14 1019.41 1019.74 1020.14 1020.60 1021.13 1021.68 1022.24 1022.76 1023.23 1023.62 1023.93 1024.17 1024.37 1024.56 1024.75 1024.96 1025.21 1025.50 1025.80 1026.10 1026.37 1026.59 1026.74 1026.81 1026.81
1011.31 1011.96 1012.52 1013.01 1013.46 1013.91 1014.39 1014.89 1015.44 1016.01 1016.58 1017.13 1017.62 1018.04 1018.40 1018.71 1018.98 1019.25 1019.56 1019.92 1020.35 1020.85 1021.40 1021.97 1022.54 1023.06 1023.51 1023.88 1024.17 1024.39 1024.56 1024.72 1024.89 1025.10 1025.35 1025.64 1025.97 1026.29 1026.58 1026.83 1026.99 1027.08 1027.07
1010.83 1011.49 1012.07 1012.58 1013.06 1013.55 1014.06 1014.62 1015.22 1015.84 1016.45 1017.04 1017.57 1018.03 1018.43 1018.76 1019.07 1019.37 1019.70 1020.09 1020.54 1021.05 1021.60 1022.17 1022.72 1023.23 1023.66 1024.00 1024.27 1024.46 1024.62 1024.76 1024.93 1025.14 1025.40 1025.70 1026.04 1026.38 1026.69 1026.95 1027.13 1027.22 1027.21
1010.35 1011.04 1011.64 1012.17 1012.68 1013.20 1013.75 1014.34 1014.98 1015.64 1016.29 1016.92 1017.49 1017.99 1018.42 1018.80 1019.14 1019.47 1019.83 1020.23 1020.68 1021.18 1021.72 1022.27 1022.79 1023.26 1023.66 1023.98 1024.22 1024.40 1024.55 1024.69 1024.86 1025.08 1025.34 1025.65 1025.99 1026.34 1026.65 1026.91 1027.09 1027.19 1027.18
1009.89 1010.60 1011.23 1011.79 1012.32 1012.86 1013.43 1014.05 1014.71 1015.39 1016.07 1016.73 1017.34 1017.88 1018.35 1018.77 1019.15 1019.51 1019.89 1020.29 1020.74 1021.22 1021.72 1022.23 1022.71 1023.14 1023.51 1023.80 1024.03 1024.20 1024.35 1024.51 1024.69 1024.91 1025.19 1025.50 1025.83 1026.17 1026.47 1026.71 1026.88 1026.96 1026.95
1009.42 1010.17 1010.83 1011.41 1011.96 1012.51 1013.09 1013.71 1014.38 1015.07 1015.77 1016.45 1017.08 1017.66 1018.18 1018.63 1019.05 1019.43 1019.82 1020.23 1020.65 1021.10 1021.56 1022.02 1022.45 1022.84 1023.17 1023.45 1023.67 1023.86 1024.03 1024.20 1024.41 1024.65 1024.92 1025.23 1025.55 1025.86 1026.13 1026.35 1026.49 1026.55 1026.53
1008.93 1009.72 1010.41 1011.01 1011.57 1012.12 1012.70 1013.31 1013.96 1014.64 1015.34 1016.03 1016.68 1017.29 1017.84 1018.33 1018.77 1019.18 1019.58 1019.98 1020.38 1020.79 1021.20 1021.61 1022.00 1022.35 1022.66 1022.93 1023.16 1023.37 1023.57 1023.78 1024.01 1024.27 1024.56 1024.86 1025.16 1025.44 1025.68 1025.86 1025.97 1026.01 1025.98
1008.41 1009.23 1009.94 1010.56 1011.12 1011.67 1012.22 1012.81 1013.43 1014.09 1014.77 1015.45 1016.11 1016.73 1017.30 1017.82 1018.29 1018.72 1019.12 1019.51 1019.89 1020.27 1020.64 1021.00 1021.35 1021.68 1021.98 1022.25 1022.51 1022.75 1022.99 1023.24 1023.52 1023.80 1024.10 1024.40 1024.68 1024.93 1025.13 1025.28 1025.36 1025.38 1025.36
1007.86 1008.70 1009.41 1010.04 1010.59 1011.12 1011.65 1012.21 1012.79 1013.42 1014.07 1014.72 1015.37 1015.99 1016.57 1017.10 1017.58 1018.03 1018.43 1018.81 1019.18 1019.53 1019.87 1020.21 1020.53 1020.84 1021.14 1021.43 1021.72 1022.01 1022.30 1022.60 1022.91 1023.23 1023.55 1023.85 1024.12 1024.34 1024.52 1024.64 1024.71 1024.73 1024.72
1007.27 1008.10 1008.82 1009.44 1009.99 1010.49 1010.99 1011.51 1012.06 1012.63 1013.24 1013.86 1014.48 1015.08 1015.66 1016.19 1016.68 1017.13 1017.54 1017.91 1018.27 1018.60 1018.93 1019.25 1019.56 1019.88 1020.19 1020.51 1020.84 1021.17 1021.52 1021.87 1022.23 1022.58 1022.91 1023.22 1023.49 1023.71 1023.88 1024.00 1024.07 1024.10 1024.11
1006.65 1007.46 1008.17 1008.77 1009.31 1009.80 1010.27 1010.75 1011.25 1011.77 1012.33 1012.91 1013.49 1014.06 1014.62 1015.14 1015.63 1016.07 1016.48 1016.85 1017.20 1017.53 1017.85 1018.17 1018.49 1018.82 1019.16 1019.52 1019.89 1020.27 1020.66 1021.06 1021.46 1021.84 1022.21 1022.53 1022.81 1023.04 1023.22 1023.35 1023.44 1023.51 1023.56
1006.03 1006.80 1007.47 1008.06 1008.58 1009.05 1009.50 1009.94 1010.40 1010.88 1011.39 1011.91 1012.45 1012.98 1013.50 1014.00 1014.47 1014.91 1015.31 1015.68 1016.03 1016.37 1016.70 1017.03 1017.37 1017.72 1018.09 1018.49 1018.90 1019.32 1019.76 1020.20 1020.63 1021.05 1021.44 1021.78 1022.09 1022.34 1022.55 1022.71 1022.85 1022.96 1023.06
1005.42 1006.13 1006.76 1007.33 1007.83 1008.28 1008.71 1009.13 1009.55 1009.99 1010.44 1010.91 1011.40 1011.89 1012.37 1012.83 1013.28 1013.70 1014.10 1014.47 1014.83 1015.17 1015.52 1015.87 1016.23 1016.61 1017.02 1017.44 1017.89 1018.35 1018.82 1019.29 1019.76 1020.20 1020.61 1020.99 1021.32 1021.61 1021.86 1022.08 1022.27 1022.44 1022.59
1004.83 1005.47 1006.06 1006.59 1007.07 1007.51 1007.92 1008.31 1008.71 1009.10 1009.52 1009.94 1010.37 1010.81 1011.25 1011.67 1012.09 1012.49 1012.88 1013.25 1013.61 1013.97 1014.34 1014.71 1015.10 1015.51 1015.95 1016.40 1016.88 1017.36 1017.86 1018.36 1018.84 1019.31 1019.75 1020.15 1020.53 1020.86 1021.16 1021.44 1021.69 1021.92 1022.14
1004.29 1004.84 1005.37 1005.86 1006.31 1006.73 1007.13 1007.51 1007.87 1008.24 1008.61 1008.99 1009.37 1009.76 1010.15 1010.54 1010.93 1011.30 1011.68 1012.04 1012.41 1012.79 1013.17 1013.57 1013.99 1014.42 1014.88 1015.36 1015.86 1016.37 1016.88 1017.39 1017.90 1018.38 1018.85 1019.29 1019.70 1020.09 1020.45 1020.78 1021.10 1021.39 1021.66
1003.79 1004.24 1004.70 1005.14 1005.56 1005.96 1006.33 1006.69 1007.04 1007.38 1007.72 1008.06 1008.40 1008.74 1009.09 1009.44 1009.79 1010.15 1010.51 1010.87 1011.24 1011.63 1012.03 1012.44 1012.88 1013.34 1013.82 1014.32 1014.83 1015.35 1015.88 1016.41 1016.93 1017.43 1017.93 1018.40 1018.86 1019.29 1019.71 1020.11 1020.48 1020.83 1021.14
Thickness
5675 5674 5673 5672 5671 5670 5669 5668 5668 5668 5667 5667 5667 5668 5668 5668 5667 5665 5665 5665 5666 5666 5666 5665 5664 5664 5663 5662 5661 5661 5660 5658 5653 5650 5648 5645 5642 5641 5637 5637 5636 5634 5632
5669 5669 5668 5667 5666 5666 5665 5665 5664 5664 5664 5664 5664 5664 5664 5664 5664 5663 5662 5662 5663 5663 5663 5663 5662 5661 5660 5659 5657 5657 5657 5656 5653 5648 5644 5642 5640 5638 5636 5634 5633 5632 5630
5664 5663 5663 5662 5662 5662 5661 5660 5660 5659 5660 5660 5660 5660 5660 5661 5661 5660 5660 5660 5660 5660 5660 5660 5660 5659 5657 5656 5654 5654 5653 5652 5650 5647 5643 5639 5637 5635 5632 5631 5630 5629 5628
5658 5658 5657 5657 5657 5656 5656 5656 5655 5655 5655 5656 5656 5656 5656 5657 5657 5658 5657 5657 5657 5658 5657 5657 5657 5657 5656 5654 5652 5651 5649 5647 5645 5644 5640 5637 5634 5632 5631 5629 5628 5626 5625
5652 5652 5652 5652 5652 5651 5650 5650 5650 5651 5651 5651 5651 5652 5652 5652 5653 5653 5653 5653 5654 5653 5654 5654 5654 5653 5652 5651 5650 5648 5646 5644 5642 5641 5639 5635 5633 5630 5630 5629 5627 5625 5623
5647 5647 5646 5646 5646 5645 5645 5645 5645 5646 5646 5646 5647 5647 5646 5646 5645 5644 5645 5648 5649 5649 5649 5650 5649 5648 5646 5644 5644 5643 5642 5642 5641 5639 5638 5636 5634 5632 5630 5628 5626 5624 5622
5642 5641 5640 5640 5639 5640 5639 5639 5639 5640 5640 5640 5641 5640 5640 5640 5638 5638 5638 5641 5643 5644 5645 5645 5645 5645 5643 5644 5640 5637 5637 5636 5637 5639 5638 5637 5635 5633 5630 5626 5625 5623 5622
5636 5635 5634 5633 5633 5633 5633 5633 5634 5635 5634 5634 5635 5635 5634 5634 5632 5631 5632 5635 5637 5639 5640 5640 5640 5640 5639 5639 5639 5637 5636 5635 5633 5633 5636 5636 5635 5632 5629 5626 5623 5620 5619
5630 5629 5628 5628 5627 5627 5627 5628 5628 5628 5628 5628 5628 5628 5628 5628 5626 5625 5625 5629 5631 5633 5634 5635 5635 5635 5633 5632 5633 5634 5633 5632 5630 5628 5628 5628 5627 5625 5623 5620 5618 5615 5614
5624 5623 5622 5622 5621 5621 5621 5621 5621 5621 5622 5621 5622 5622 5622 5622 5620 5619 5618 5622 5624 5626 5627 5627 5626 5627 5626 5625 5627 5629 5628 5629 5627 5624 5622 5622 5621 5619 5617 5617 5616 5613 5613
5617 5616 5615 5615 5615 5615 5615 5614 5614 5614 5614 5615 5615 5616 5616 5616 5614 5612 5612 5615 5617 5618 5619 5620 5620 5618 5618 5618 5620 5623 5623 5623 5623 5622 5620 5619 5618 5617 5614 5612 5612 5611 5611
5610 5609 5608 5608 5608 5608 5607 5607 5607 5606 5606 5607 5608 5609 5609 5608 5607 5606 5605 5605 5607 5609 5611 5612 5612 5610 5611 5611 5612 5614 5613 5613 5615 5615 5615 5614 5614 5613 5611 5609 5607 5606 5606
5603 5602 5602 5601 5601 5601 5601 5600 5600 5599 5600 5600 5600 5601 5601 5601 5600 5598 5597 5596 5596 5599 5602 5602 5602 5602 5602 5604 5604 5605 5605 5606 5607 5608 5609 5609 5609 5608 5606 5603 5602 5600 5599
5596 5596 5595 5594 5594 5594 5593 5593 5592 5592 5593 5593 5593 5593 5594 5594 5593 5592 5591 5589 5588 5589 5591 5592 5592 5593 5594 5595 5597 5597 5598 5600 5600 5601 5603 5603 5602 5600 5598 5597 5595 5594 5592
5589 5589 5588 5587 5586 5585 5585 5584 5584 5584 5584 5584 5585 5585 5585 5586 5585 5584 5583 5583 5583 5583 5583 5584 5585 5587 5588 5589 5591 5591 5592 5592 5592 5594 5594 5595 5594 5593 5592 5591 5590 5589 5588
5582 5582 5581 5580 5579 5578 5577 5576 5574 5573 5573 5572 5572 5573 5575 5575 5575 5574 5573 5573 5572 5572 5573 5576 5578 5580 5582 5583 5584 5584 5584 5585 5585 5586 5586 5587 5588 5588 5587 5585 5583 5583 5583
5575 5575 5574 5573 5572 5571 5570 5570 5569 5566 5564 5564 5563 5563 5563 5564 5564 5564 5563 5562 5562 5562 5564 5568 5570 5572 5574 5575 5576 5577 5577 5578 5578 5578 5578 5580 5581 5581 5580 5579 5578 5578 5578
5568 5567 5566 5566 5565 5564 5564 5563 5562 5561 5561 5560 5558 5556 5555 5555 5555 5554 5553 5552 5553 5554 5558 5561 5562 5564 5566 5567 5568 5569 5570 5570 5570 5570 5571 5572 5573 5573 5574 5574 5573 5573 5572
5561 5560 5560 5559 5558 5558 5557 5556 5555 5554 5554 5553 5553 5551 5548 5546 5545 5544 5543 5546 5549 5549 5550 5552 5554 5556 5558 5559 5560 5561 5562 5563 5563 5563 5564 5565 5566 5567 5567 5568 5568 5566 5565
5553 5552 5551 5551 5551 5551 5550 5549 5548 5548 5548 5547 5547 5546 5543 5540 5541 5539 5538 5540 5542 5543 5544 5545 5546 5548 5550 5551 5552 5553 5554 5555 5556 5556 5558 5559 5560 5560 5561 5561 5561 5561 5560
5546 5546 5544 5544 5545 5544 5544 5543 5542 5542 5541 5541 5541 5539 5535 5536 5536 5535 5534 5535 5536 5537 5538 5538 5540 5540 5542 5542 5544 5545 5546 5548 5548 5549 5550 5552 5552 5553 5554 5554 5555 5554 5554
5540 5540 5539 5538 5538 5537 5537 5537 5536 5535 5535 5535 5534 5533 5528 5529 5530 5530 5530 5530 5531 5531 5532 5532 5533 5534 5535 5536 5537 5538 5540 5541 5542 5542 5543 5544 5545 5546 5546 5547 5548 5548 5547
5533 5533 5532 5532 5531 5530 5530 5530 5529 5529 5528 5528 5528 5527 5525 5524 5524 5524 5525 5525 5524 5525 5526 5526 5527 5528 5528 5529 5530 5531 5533 5535 5535 5536 5536 5536 5538 5539 5539 5540 5540 5540 5540
5527 5526 5526 5525 5525 5524 5524 5524 5523 5522 5522 5522 5521 5521 5520 5518 5518 5517 5518 5518 5519 5519 5520 5521 5522 5523 5523 5523 5524 5525 5526 5527 5527 5528 5529 5529 5531 5532 5533 5533 5533 5533 5533
5520 5519 5519 5518 5518 5518 5518 5518 5517 5517 5516 5515 5515 5514 5513 5512 5512 5511 5510 5511 5512 5513 5514 5515 5516 5517 5518 5518 5519 5520 5520 5520 5520 5521 5521 5523 5524 5526 5526 5527 5527 5526 5526
5513 5512 5511 5511 5510 5510 5511 5511 5511 5510 5510 5509 5508 5508 5507 5506 5505 5505 5504 5505 5506 5507 5508 5509 5510 5512 5512 5513 5514 5514 5514 5514 5514 5514 5515 5516 5518 5520 5520 5520 5520 5520 5519